Regional Weather Roundup
Issued by NWS

Home | Current Version | Previous Version | Graphics & Text | Print | Product List | Glossary On
Versions: 1 2 3 4 5 6 7 8 9 10 11 12 13 14 15 16 17 18 19 20 21 22 23 24 25 26 27 28 29 30 31 32 33 34 35 36 37 38 39 40 41 42 43 44 45 46 47 48 49 50
000
ASUS43 KLMK 300302
RWRKY
KENTUCKY REGIONAL WEATHER ROUNDUP
NATIONAL WEATHER SERVICE LOUISVILLE KY
1100 PM EDT MON AUG 29 2016

NOTE "FAIR" INDICATES FEW OR NO CLOUDS BELOW 12,000 FEET
WITH NO SIGNIFICANT WEATHER AND/OR OBSTRUCTIONS TO VISIBILITY.

KYZ001>023-026-027-061>063-070>075-300400-
WESTERN AND SOUTH CENTRAL KENTUCKY

CITY           SKY/WX    TMP DP  RH WIND       PRES   REMARKS
PADUCAH        CLEAR     79  72  79 E3        30.10R
HENDERSON      CLEAR     79  70  73 N3        30.11S
OWENSBORO      CLEAR     82  73  74 NE5       30.13R
HOPKINSVILLE   CLEAR     79  75  87 NE7       30.11R
BOWLING GREEN  CLEAR     78  72  81 CALM      30.13R
GLASGOW        CLEAR     74  69  83 NE3       30.14R
$$

KYZ024-025-028>034-038-045-046-053-300400-
NORTH CENTRAL KENTUCKY

CITY           SKY/WX    TMP DP  RH WIND       PRES   REMARKS
LOUISVILLE/SDF CLEAR     83  70  64 N3        30.14R
LOUISVILLE/LOU CLEAR     82  69  64 N3        30.14S
FORT KNOX      CLEAR     77  70  78 NE5       30.13S
$$

KYZ035>037-039>044-047>052-055>060-089>105-300400-
NORTHEAST KENTUCKY

CITY           SKY/WX    TMP DP  RH WIND       PRES   REMARKS
LEXINGTON      CLEAR     77  70  79 NE8       30.16S
COVINGTON      CLEAR     81  71  71 E7        30.17S
FRANKFORT      CLEAR     77  73  87 N5        30.15S
$$

KYZ054-064>069-076>088-106>120-300400-
SOUTHEAST KENTUCKY

CITY           SKY/WX    TMP DP  RH WIND       PRES   REMARKS
JACKSON        CLEAR     71  67  87 CALM      30.18S
LONDON         CLEAR     73  67  81 N5        30.17S
SOMERSET       CLEAR     72  66  83 CALM      30.16S
MIDDLESBORO    CLEAR     72  71  98 CALM      30.17S
MONTICELLO     CLEAR    N/A N/A N/A N14       30.17S
$$





USA.gov is the U.S. government's official web portal to all federal, state and local government web resources and services.